Regional Weather Roundup
Issued by NWS

Home | Current Version | Previous Version | Text Only | Print | Product List | Glossary On
Versions: 1 2 3 4 5 6 7 8 9 10 11 12 13 14 15 16 17 18 19 20 21 22 23 24 25 26 27 28 29 30 31 32 33 34 35 36 37 38 39 40 41 42 43 44 45 46 47 48 49 50
000
ASUS43 KTOP 221459
RWRKS

WEATHER ROUNDUP FOR KANSAS
NATIONAL WEATHER SERVICE GOODLAND KS
1000 AM CDT FRI SEP 22 2017

NOTE:  "FAIR" INDICATES FEW OR NO CLOUDS BELOW 12,000 FEET WITH NO
SIGNIFICANT WEATHER AND/OR OBSTRUCTIONS TO VISIBILITY.

KSZ001>006-013>018-027>032-041>047-221600-
NORTHWEST KANSAS

CITY           SKY/WX    TMP DP  RH WIND       PRES   REMARKS
GOODLAND       CLOUDY    73  53  49 S17G28    29.80R
HAYS           SUNNY     81  65  58 S18G30    29.84R
HILL CITY      SUNNY     83  63  50 S25G35    29.80R
RUSSELL        SUNNY     82  65  56 S22G29    29.84R
$$

KSZ061>065-074>080-084>089-221600-
SOUTHWEST KANSAS

CITY           SKY/WX    TMP DP  RH WIND       PRES   REMARKS
DODGE CITY     CLOUDY    77  63  61 S17       29.89R
ELKHART          N/A     75  64  68 S16         N/A
GARDEN CITY    MOSUNNY   78  62  57 S24G33    29.87R
GREAT BEND     SUNNY     82  67  60 S20G28    29.87R
LIBERAL        MOSUNNY   78  65  63 S18G28    29.91R
$$

KSZ066>073-081>083-090>101-221600-
SOUTHEAST KANSAS

CITY           SKY/WX    TMP DP  RH WIND       PRES   REMARKS
CHANUTE        SUNNY     80  71  74 S14       30.00R
COFFEYVILLE    SUNNY     79  70  74 S14G22    29.99R
HUTCHINSON     SUNNY     80  70  71 S22       29.90R
MEDICINE LODGE   N/A     78  68  71 S12G22    29.89S
NEWTON         SUNNY     80  69  69 S17       29.93S
WICHITA INTL   MOSUNNY   81  70  69 S21       29.92R
WICHITA JABRA  SUNNY     79  70  74 S20G26    29.93R
WINFIELD       SUNNY     79  71  76 S16       29.96R
$$

KSZ007>012-019>026-033>040-048>060-102>105-221600-
NORTHEAST KANSAS

CITY           SKY/WX    TMP DP  RH WIND       PRES   REMARKS
CONCORDIA      SUNNY     80  69  69 S22G31    29.84R
EMPORIA        SUNNY     78  70  76 S14       29.95R
LAWRENCE       SUNNY     79  71  76 SE15      29.96R
MANHATTAN      SUNNY     82  70  66 S14G22    29.89R
OLATHE IND     SUNNY     78  70  76 S13G21    29.99R
OLATHE EXE     SUNNY     77  71  82 S15       29.99S
SALINA         SUNNY     85  68  56 S16G28    29.86S
TOPEKA BILLARD SUNNY     81  73  76 S12       29.94R
TOPEKA FORBES  SUNNY     81  72  74 S18       29.94R
$$




USA.gov is the U.S. government's official web portal to all federal, state and local government web resources and services.